Date String (YYYY-MM-DD hh:mm:ss) UTC,Instrument flags,Ambient pressure (hPa),Sample flow (lpm),Bypass flow (lpm),Sample temperature (°C),Ambient temperature (°C),ASC tube jacket temperature (°C),LED temperature (°C),Box temperature (°C),Sample RH (%),Span deviation,Mass concentration (μg/m³),Mass concentration (μg/m³),Mass concentration (μg/m³)
DateTimeUTC,F1_M11,P_M11,Q1_M11,Q2_M11,T1_M11,T2_M11,T3_M11,T4_M11,T5_M11,U1_M11,ZSPAN_M11,X2_M11,X0_M11,X1_M11
2023-03-13 00:00:00,,0824.9,5.00,0.00,22.6,21.3,00.0,31.3,24.5,14.2,0001.1,0006.05,0014.75,0005.58
2023-03-13 00:01:00,,0824.9,5.00,0.00,22.6,21.2,00.0,31.3,24.4,14.3,0000.7,0006.02,0014.39,0005.60
2023-03-13 00:02:00,,0824.9,5.00,0.00,22.6,21.2,00.0,31.3,24.4,14.6,-000.2,0006.05,0014.55,0005.61
2023-03-13 00:03:00,,0824.9,4.99,0.00,22.6,21.1,00.0,31.3,24.3,14.7,-000.7,0006.06,0014.90,0005.61
2023-03-13 00:04:00,,0824.8,5.01,0.00,22.5,21.0,00.0,31.3,24.2,14.8,-001.1,0006.06,0015.50,0005.62
2023-03-13 00:05:00,,0824.8,5.00,0.00,22.5,20.9,00.0,31.3,24.2,14.8,-000.6,0006.07,0014.66,0005.65
2023-03-13 00:06:00,,0824.9,5.01,0.00,22.4,20.8,00.0,31.3,24.1,14.8,0000.4,0006.09,0013.40,0005.66
2023-03-13 00:07:00,,0824.9,5.01,0.00,22.4,20.7,00.0,31.2,24.0,14.9,-000.1,0006.13,0012.91,0005.68
2023-03-13 00:08:00,,0824.9,5.02,0.00,22.3,20.6,00.0,31.2,24.0,15.0,0000.1,0006.15,0011.91,0005.71
2023-03-13 00:09:00,,0824.9,5.00,0.00,22.3,20.5,00.0,31.2,23.9,15.0,0000.5,0006.22,0012.03,0005.74
2023-03-13 00:10:00,,0824.9,5.01,0.00,22.2,20.4,00.0,31.2,23.9,14.9,-000.3,0006.27,0012.15,0005.77
2023-03-13 00:11:00,,0824.9,5.00,0.00,22.2,20.4,00.0,31.1,23.8,14.9,-000.7,0006.28,0012.33,0005.79
2023-03-13 00:12:00,,0824.9,5.02,0.00,22.2,20.4,00.0,31.1,23.8,15.1,-000.7,0006.32,0012.40,0005.81
2023-03-13 00:13:00,,0824.9,4.98,0.00,22.2,20.3,00.0,31.1,23.9,15.1,-000.4,0006.33,0012.02,0005.83
2023-03-13 00:14:00,,0824.9,5.00,0.00,22.1,20.3,00.0,31.1,23.8,15.2,-001.1,0006.32,0011.99,0005.84
2023-03-13 00:15:00,,0824.9,5.00,0.00,22.1,20.3,00.0,31.0,23.8,15.3,-001.2,0006.32,0011.88,0005.84
2023-03-13 00:16:00,,0824.9,4.99,0.00,22.1,20.2,00.0,31.0,23.7,15.4,-001.3,0006.33,0011.68,0005.84
2023-03-13 00:17:00,,0824.9,4.99,0.00,22.0,20.2,00.0,31.0,23.7,15.6,-001.7,0006.32,0011.40,0005.84
2023-03-13 00:18:00,,0824.9,5.01,0.00,22.0,20.2,00.0,31.0,23.6,15.8,-002.3,0006.30,0011.07,0005.84
2023-03-13 00:19:00,,0824.9,5.00,0.00,22.0,20.1,00.0,30.9,23.6,16.0,-002.5,0006.29,0011.58,0005.83
2023-03-13 00:20:00,,0824.9,5.00,0.00,21.9,20.1,00.0,30.9,23.5,16.3,-002.6,0006.26,0011.53,0005.83
2023-03-13 00:21:00,,0824.9,5.00,0.00,22.0,20.6,00.0,30.9,23.7,16.5,-002.4,0006.25,0011.49,0005.83
2023-03-13 00:22:00,,0824.9,5.01,0.00,22.1,21.6,00.0,30.9,24.0,16.5,-002.4,0006.27,0011.19,0005.84
2023-03-13 00:23:00,,0824.9,5.01,0.00,22.2,22.5,00.0,30.9,24.3,16.4,-002.2,0006.27,0011.26,0005.83
2023-03-13 00:24:00,,0824.9,4.99,0.00,22.3,22.6,00.0,30.9,24.3,16.4,-002.1,0006.27,0011.24,0005.82
2023-03-13 00:25:00,,0824.9,5.02,0.00,22.3,22.0,00.0,31.0,24.2,16.5,-002.0,0006.28,0010.66,0005.82
2023-03-13 00:26:00,,0824.9,5.00,0.00,22.3,21.6,00.0,31.0,24.1,16.6,-002.0,0006.29,0010.18,0005.81
2023-03-13 00:27:00,,0824.9,5.01,0.00,22.3,21.3,00.0,31.0,24.0,16.8,-002.0,0006.24,0009.79,0005.80
2023-03-13 00:28:00,,0824.9,5.01,0.00,22.2,21.0,00.0,31.0,23.9,16.9,-001.9,0006.25,0009.88,0005.79
2023-03-13 00:29:00,,0824.9,5.00,0.00,22.2,20.8,00.0,31.0,23.9,17.0,-001.5,0006.23,0009.94,0005.77
2023-03-13 00:30:00,,0824.9,5.00,0.00,22.2,20.7,00.0,31.0,23.8,17.1,-001.3,0006.22,0009.48,0005.77
2023-03-13 00:31:00,,0824.9,5.00,0.00,22.1,20.6,00.0,31.0,23.8,17.2,-001.5,0006.23,0009.46,0005.77
2023-03-13 00:32:00,,0824.9,4.99,0.00,22.1,20.5,00.0,31.0,23.7,17.2,-001.4,0006.22,0009.46,0005.77
2023-03-13 00:33:00,,0824.9,5.00,0.00,22.0,20.4,00.0,30.9,23.7,17.2,-001.5,0006.21,0009.44,0005.77
2023-03-13 00:34:00,,0824.9,5.00,0.00,22.0,20.4,00.0,30.9,23.6,17.2,-001.5,0006.20,0009.41,0005.77
2023-03-13 00:35:00,,0824.9,5.00,0.00,22.0,20.3,00.0,30.9,23.6,17.3,-001.5,0006.14,0009.19,0005.77
2023-03-13 00:36:00,,0824.9,5.01,0.00,22.0,20.3,00.0,30.9,23.6,17.3,-001.4,0006.16,0009.28,0005.78
2023-03-13 00:37:00,,0824.9,5.00,0.00,22.0,20.3,00.0,30.9,23.6,17.3,-001.3,0006.15,0009.59,0005.78
2023-03-13 00:38:00,,0824.9,5.01,0.00,22.0,20.3,00.0,30.9,23.7,17.3,-001.3,0006.14,0009.71,0005.79
2023-03-13 00:39:00,,0824.9,5.00,0.00,22.0,20.3,00.0,30.8,23.6,17.3,-001.6,0006.12,0009.64,0005.78
2023-03-13 00:40:00,,0824.9,4.99,0.00,21.9,20.3,00.0,30.8,23.6,17.3,-001.6,0006.14,0009.65,0005.79
2023-03-13 00:41:00,,0824.9,5.00,0.00,21.9,20.2,00.0,30.8,23.6,17.4,-001.7,0006.14,0009.66,0005.79
2023-03-13 00:42:00,,0825.0,5.00,0.00,21.9,20.2,00.0,30.8,23.6,17.3,-001.7,0006.14,0009.84,0005.78
2023-03-13 00:43:00,,0825.0,5.01,0.00,21.9,20.2,00.0,30.8,23.6,17.4,-001.4,0006.12,0009.99,0005.76
2023-03-13 00:44:00,,0825.0,4.99,0.00,21.9,20.2,00.0,30.8,23.7,17.4,-000.7,0006.12,0010.00,0005.76
2023-03-13 00:45:00,,0825.0,5.00,0.00,21.9,20.3,00.0,30.8,23.7,17.4,-000.5,0006.13,0010.04,0005.75
2023-03-13 00:46:00,,0825.0,5.00,0.00,21.9,20.3,00.0,30.8,23.7,17.3,-001.0,0006.17,0010.10,0005.77
2023-03-13 00:47:00,,0825.0,5.02,0.00,21.9,20.3,00.0,30.8,23.7,17.4,-001.6,0006.17,0010.15,0005.76
2023-03-13 00:48:00,,0825.0,5.01,0.00,21.9,20.3,00.0,30.8,23.7,17.4,-001.6,0006.19,0010.11,0005.77
2023-03-13 00:49:00,,0825.1,5.00,0.00,21.9,20.3,00.0,30.8,23.7,17.3,-001.4,0006.24,0010.14,0005.77
2023-03-13 00:50:00,,0825.0,5.00,0.00,21.9,20.3,00.0,30.7,23.7,17.3,-001.2,0006.30,0010.27,0005.79
2023-03-13 00:51:00,,0825.1,4.99,0.00,21.9,20.3,00.0,30.7,23.7,17.2,-001.5,0006.32,0010.25,0005.80
2023-03-13 00:52:00,,0825.0,5.00,0.00,21.9,20.3,00.0,30.7,23.7,17.2,-001.3,0006.34,0010.28,0005.82
2023-03-13 00:53:00,,0825.0,4.98,0.00,22.0,20.9,00.0,30.7,23.8,17.2,-001.3,0006.38,0010.14,0005.84
2023-03-13 00:54:00,,0825.0,4.99,0.00,22.1,22.0,00.0,30.7,24.1,17.2,-001.7,0006.44,0010.56,0005.87
2023-03-13 00:55:00,,0825.1,4.98,0.00,22.2,22.7,00.0,30.8,24.3,17.1,-002.1,0006.44,0010.52,0005.89
2023-03-13 00:56:00,,0825.1,5.01,0.00,22.2,22.4,00.0,30.8,24.3,17.0,-002.1,0006.42,0010.47,0005.89
2023-03-13 00:57:00,,0825.1,4.98,0.00,22.3,22.0,00.0,30.8,24.2,17.0,-002.2,0006.41,0010.66,0005.89
2023-03-13 00:58:00,,0825.2,5.00,0.00,22.3,21.7,00.0,30.9,24.2,17.0,-001.5,0006.40,0010.64,0005.88
2023-03-13 00:59:00,,0825.2,4.99,0.00,22.3,21.4,00.0,30.9,24.1,16.9,-001.1,0006.38,0010.43,0005.88
